When you browse on this site, cookies collect data to enhance your experience and personalize the content and advertising you see.
Visit our Privacy Policy to learn more. By continuing to use the site, you agree to this use of cookies and data.
  • en Suisse
  • Liste des pays
  • À 7 jours
  • Température de l'eau
  • Carte météo
  • Widgets météo
  • user-avatar
    Se connecter

    Météo par heure à Ravda

    Ce jour, 22 Février, Samedi

    Heure Température Précipitation Vent Pression Humidité
    00:00 +5°C° 0 mm 1 m/s 766 mmHg 89%
    01:00 +4°C° 0 mm 2 m/s 766 mmHg 90%
    02:00 +4°C° 0 mm 2 m/s 766 mmHg 91%
    03:00 +4°C° 0 mm 2 m/s 767 mmHg 91%
    04:00 +4°C° 0 mm 2 m/s 767 mmHg 92%
    05:00 +4°C° 0 mm 2 m/s 767 mmHg 92%
    06:00 +3°C° 0 mm 3 m/s 767 mmHg 90%
    07:00 +3°C° 0 mm 3 m/s 767 mmHg 88%
    08:00 +4°C° 0 mm 3 m/s 768 mmHg 86%
    09:00 +4°C° 0 mm 3 m/s 768 mmHg 82%
    10:00 +5°C° 0 mm 4 m/s 769 mmHg 78%
    11:00 +6°C° 0 mm 4 m/s 769 mmHg 74%
    12:00 +6°C° 0.1 mm 4 m/s 769 mmHg 74%
    13:00 +6°C° 0.1 mm 4 m/s 769 mmHg 74%
    14:00 +7°C° 0.1 mm 4 m/s 770 mmHg 74%
    15:00 +6°C° 0.1 mm 4 m/s 770 mmHg 74%
    16:00 +6°C° 0.1 mm 4 m/s 770 mmHg 75%
    17:00 +7°C° 0.1 mm 3 m/s 769 mmHg 75%
    18:00 +5°C° 0 mm 3 m/s 770 mmHg 77%
    19:00 +5°C° 0 mm 2 m/s 770 mmHg 80%
    20:00 +5°C° 0 mm 2 m/s 771 mmHg 82%
    21:00 +4°C° 0 mm 2 m/s 771 mmHg 83%
    22:00 +4°C° 0 mm 2 m/s 771 mmHg 83%
    23:00 +4°C° 0 mm 2 m/s 771 mmHg 84%

    Demain, 23 Février, Dimanche

    Heure Température Précipitation Vent Pression Humidité
    00:00 +4°C° 0 mm 2 m/s 771 mmHg 83%
    01:00 +3°C° 0 mm 2 m/s 771 mmHg 82%
    02:00 +3°C° 0 mm 2 m/s 770 mmHg 81%
    03:00 +3°C° 0 mm 2 m/s 770 mmHg 80%
    04:00 +3°C° 0 mm 2 m/s 769 mmHg 80%
    05:00 +3°C° 0 mm 2 m/s 769 mmHg 79%
    06:00 +3°C° 0 mm 2 m/s 769 mmHg 79%
    07:00 +3°C° 0 mm 2 m/s 769 mmHg 79%
    08:00 +4°C° 0 mm 2 m/s 769 mmHg 79%
    09:00 +4°C° 0 mm 3 m/s 769 mmHg 73%
    10:00 +7°C° 0 mm 3 m/s 769 mmHg 67%
    11:00 +7°C° 0 mm 4 m/s 768 mmHg 61%
    12:00 +8°C° 0 mm 4 m/s 768 mmHg 58%
    13:00 +10°C° 0 mm 4 m/s 767 mmHg 55%
    14:00 +11°C° 0 mm 4 m/s 766 mmHg 52%
    15:00 +11°C° 0 mm 4 m/s 766 mmHg 54%
    16:00 +11°C° 0 mm 4 m/s 765 mmHg 56%
    17:00 +11°C° 0 mm 3 m/s 765 mmHg 59%
    18:00 +10°C° 0 mm 3 m/s 765 mmHg 62%
    19:00 +8°C° 0 mm 3 m/s 765 mmHg 65%
    20:00 +7°C° 0 mm 3 m/s 765 mmHg 68%
    21:00 +7°C° 0 mm 3 m/s 764 mmHg 68%
    22:00 +7°C° 0 mm 3 m/s 764 mmHg 68%
    23:00 +6°C° 0 mm 4 m/s 763 mmHg 68%

    Après-demain, 24 Février, Lundi

    Heure Température Précipitation Vent Pression Humidité
    00:00 +6°C° 0 mm 4 m/s 763 mmHg 69%
    01:00 +6°C° 0 mm 4 m/s 762 mmHg 69%
    02:00 +5°C° 0 mm 4 m/s 761 mmHg 70%
    03:00 +5°C° 0 mm 4 m/s 761 mmHg 71%
    04:00 +5°C° 0 mm 4 m/s 760 mmHg 72%
    05:00 +5°C° 0 mm 5 m/s 759 mmHg 73%
    06:00 +6°C° 0 mm 5 m/s 758 mmHg 72%
    07:00 +5°C° 0 mm 6 m/s 758 mmHg 72%
    08:00 +5°C° 0 mm 6 m/s 758 mmHg 71%
    09:00 +8°C° 0 mm 7 m/s 758 mmHg 64%
    10:00 +11°C° 0 mm 8 m/s 758 mmHg 57%
    11:00 +13°C° 0 mm 9 m/s 758 mmHg 50%
    12:00 +13°C° 0 mm 10 m/s 758 mmHg 47%
    13:00 +14°C° 0 mm 11 m/s 758 mmHg 45%
    14:00 +14°C° 0 mm 11 m/s 758 mmHg 42%
    15:00 +13°C° 0 mm 9 m/s 759 mmHg 43%
    16:00 +12°C° 0 mm 7 m/s 760 mmHg 43%
    17:00 +10°C° 0 mm 6 m/s 761 mmHg 44%
    18:00 +9°C° 0 mm 5 m/s 762 mmHg 45%
    19:00 +8°C° 0 mm 4 m/s 763 mmHg 45%
    20:00 +8°C° 0 mm 3 m/s 765 mmHg 46%
    21:00 +7°C° 0 mm 3 m/s 766 mmHg 49%
    22:00 +5°C° 0 mm 3 m/s 766 mmHg 51%
    23:00 +5°C° 0 mm 3 m/s 767 mmHg 53%

    25 Février, Mardi

    Heure Température Précipitation Vent Pression Humidité
    00:00 +4°C° 0 mm 3 m/s 767 mmHg 55%
    01:00 +5°C° 0 mm 2 m/s 768 mmHg 56%
    02:00 +4°C° 0 mm 2 m/s 768 mmHg 58%
    03:00 +4°C° 0 mm 2 m/s 768 mmHg 58%
    04:00 +5°C° 0 mm 1 m/s 768 mmHg 59%
    05:00 +5°C° 0 mm 1 m/s 768 mmHg 59%
    06:00 +5°C° 0 mm 1 m/s 768 mmHg 60%
    07:00 +5°C° 0 mm 1 m/s 768 mmHg 60%
    08:00 +5°C° 0 mm 1 m/s 768 mmHg 61%
    09:00 +6°C° 0 mm 2 m/s 768 mmHg 57%
    10:00 +7°C° 0 mm 3 m/s 767 mmHg 54%
    11:00 +8°C° 0 mm 4 m/s 767 mmHg 50%
    12:00 +9°C° 0 mm 5 m/s 766 mmHg 49%
    13:00 +9°C° 0 mm 5 m/s 766 mmHg 49%
    14:00 +10°C° 0 mm 6 m/s 765 mmHg 48%
    15:00 +10°C° 0 mm 6 m/s 764 mmHg 51%
    16:00 +10°C° 0 mm 5 m/s 763 mmHg 54%
    17:00 +9°C° 0 mm 5 m/s 762 mmHg 56%
    18:00 +8°C° 0 mm 5 m/s 762 mmHg 59%
    19:00 +7°C° 0 mm 5 m/s 762 mmHg 61%
    20:00 +7°C° 0 mm 5 m/s 761 mmHg 63%
    21:00 +6°C° 0 mm 4 m/s 761 mmHg 63%
    22:00 +6°C° 0 mm 4 m/s 760 mmHg 64%
    23:00 +5°C° 0 mm 4 m/s 760 mmHg 64%

    26 Février, Mercredi

    Heure Température Précipitation Vent Pression Humidité
    00:00 +5°C° 0 mm 4 m/s 759 mmHg 65%
    01:00 +5°C° 0 mm 4 m/s 758 mmHg 66%
    02:00 +4°C° 0 mm 3 m/s 758 mmHg 67%
    03:00 +4°C° 0 mm 3 m/s 757 mmHg 71%
    04:00 +4°C° 0 mm 3 m/s 756 mmHg 75%
    05:00 +3°C° 0 mm 3 m/s 756 mmHg 78%
    06:00 +4°C° 0 mm 3 m/s 756 mmHg 78%
    07:00 +4°C° 0 mm 4 m/s 755 mmHg 78%
    08:00 +4°C° 0 mm 4 m/s 755 mmHg 78%
    09:00 +6°C° 0 mm 4 m/s 755 mmHg 73%
    10:00 +8°C° 0 mm 4 m/s 754 mmHg 68%
    11:00 +9°C° 0 mm 5 m/s 754 mmHg 63%
    12:00 +10°C° 0 mm 5 m/s 753 mmHg 63%
    13:00 +11°C° 0 mm 6 m/s 752 mmHg 62%
    14:00 +13°C° 0 mm 6 m/s 752 mmHg 61%
    15:00 +13°C° 0 mm 6 m/s 751 mmHg 65%
    16:00 +13°C° 0 mm 6 m/s 751 mmHg 69%
    17:00 +13°C° 0 mm 6 m/s 750 mmHg 72%
    18:00 +11°C° 0 mm 6 m/s 750 mmHg 75%
    19:00 +11°C° 0 mm 6 m/s 750 mmHg 78%
    20:00 +10°C° 0 mm 6 m/s 750 mmHg 81%
    21:00 +10°C° 0 mm 6 m/s 749 mmHg 82%
    22:00 +10°C° 0 mm 6 m/s 749 mmHg 83%
    23:00 +10°C° 0 mm 7 m/s 749 mmHg 84%

    27 Février, Jeudi

    Heure Température Précipitation Vent Pression Humidité
    00:00 +10°C° 0 mm 7 m/s 749 mmHg 85%
    01:00 +10°C° 0 mm 7 m/s 749 mmHg 86%
    02:00 +10°C° 0 mm 6 m/s 748 mmHg 87%
    03:00 +10°C° 0 mm 6 m/s 748 mmHg 86%
    04:00 +9°C° 0 mm 6 m/s 748 mmHg 86%
    05:00 +9°C° 0 mm 5 m/s 748 mmHg 86%
    06:00 +10°C° 0 mm 6 m/s 747 mmHg 82%
    07:00 +10°C° 0 mm 6 m/s 747 mmHg 79%
    08:00 +10°C° 0 mm 6 m/s 747 mmHg 76%
    09:00 +12°C° 0 mm 8 m/s 747 mmHg 69%
    10:00 +13°C° 0 mm 9 m/s 747 mmHg 63%
    11:00 +14°C° 0 mm 10 m/s 746 mmHg 56%
    12:00 +14°C° 0.1 mm 10 m/s 746 mmHg 52%
    13:00 +16°C° 0.1 mm 9 m/s 746 mmHg 47%
    14:00 +16°C° 0.1 mm 9 m/s 746 mmHg 43%
    15:00 +13°C° 0 mm 9 m/s 746 mmHg 50%
    16:00 +10°C° 0 mm 8 m/s 746 mmHg 57%
    17:00 +8°C° 0 mm 7 m/s 747 mmHg 64%
    18:00 +6°C° 0.1 mm 7 m/s 747 mmHg 70%
    19:00 +4°C° 0.1 mm 8 m/s 748 mmHg 77%
    20:00 +2°C° 0.1 mm 8 m/s 748 mmHg 83%
    21:00 +2°C° 0.2 mm 8 m/s 749 mmHg 85%
    22:00 +3°C° 0.2 mm 7 m/s 749 mmHg 86%
    23:00 +3°C° 0.2 mm 6 m/s 750 mmHg 88%
    Voir plus